Weather in Kazhirovo

Russia / Kostroma Oblast     58°46′52″N   46°25′42″E
temp.,
°C
wind,
m/s
gust,
m/s
humid.,
%
clouds,
%
prec.,
mm/h
press.,
hPa
HPBL,
m
1 december, wed
wed100:000s61495100 0.3 9781248
03:00−1ssw71590100 2.0 9801465
06:00−2ssw61384100 0.5 9811221
09:00−3ssw61387100 0.9 9841248
12:00−2s51192100 0.3 986932
15:00−3ssw41086100 0.3 986673
18:00−4ssw4119193 0.0 987587
21:00−4ssw499196 0.1 987599
2 december, thu
thu200:00−4sw499199 0.1 988596
03:00−4wsw489281 0.5 989692
06:00−6sw3893100 0.1 991518
09:00−6wsw4986100 0.1 993672
12:00−6wsw498899 0.1 995784
15:00−6wsw51087100 0.2 996817
18:00−8wsw51189100 0.1 998660
21:00−8wsw41089100 0.1 999654
3 december, fri
fri300:00−7sw41088100 0.0 1000622
03:00−7sw3991100 0.0 1000465
06:00−6ssw2795100 0.1 1000368
09:00−5s2795100 0.5 1001396
12:00−4ssw2592100 0.5 1001406
15:00−4se1398100 0.8 100374
18:00−3se1398100 0.6 1004116
21:00−1ssw2797100 0.8 1005263
4 december, sat
sat400:00−2sse2797100 0.1 1005228
03:00−1ese41198100 1.4 1001472
06:000sse41399100 5.5 997777
09:00+2s51399100 8.4 995878
12:00+1sw61297100 1.4 995891
15:00−1sw61281100 1.5 998967
18:00−3sw51291100 0.1 10001151
21:00−3sw51289100 0.3 1002749
5 december, sun
sun500:00−9nw4993100 0.7 1006387
03:00−12wnw389099 0.8 1009515
06:00−15nw389398 0.0 1011473
09:00−15nw3890100 0.0 1014591
12:00−15nnw4787100 0.0 1017628
15:00−17nnw3890100 0.0 1020535
18:00−19nnw399232 0.0 1023412
21:00−21nw39935 0.0 1025345